• In Russia
  • List of Countries
  • For 7 days
  • Water Temperature
  • Satellite Maps
  • Weather Map
  • Weather Widgets
  • user-avatar
    Login

    Hourly Weather Boma

    Today, 23 January, Wednesday

    Time Temperature Precipitation Wind Pressure Humidity
    00:00 +23°C° 0.4 mm 1 mps 700 mmHg 74%
    01:00 +20°C° 0 mm 0 mps 700 mmHg 74%
    02:00 +19°C° 0 mm 0 mps 700 mmHg 80%
    03:00 +19°C° 0 mm 0 mps 700 mmHg 86%
    04:00 +21°C° 0 mm 1 mps 700 mmHg 92%
    05:00 +19°C° 0 mm 0 mps 700 mmHg 93%
    06:00 +19°C° 0 mm 0 mps 700 mmHg 95%
    07:00 +20°C° 0 mm 0 mps 701 mmHg 95%
    08:00 +24°C° 0 mm 1 mps 701 mmHg 88%
    09:00 +25°C° 0 mm 1 mps 701 mmHg 81%
    10:00 +27°C° 0 mm 1 mps 701 mmHg 74%
    11:00 +31°C° 0 mm 1 mps 701 mmHg 57%
    12:00 +34°C° 0 mm 0 mps 701 mmHg 40%
    13:00 +37°C° 0 mm 0 mps 701 mmHg 27%
    14:00 +36°C° 0 mm 0 mps 701 mmHg 25%
    15:00 +39°C° 0 mm 1 mps 700 mmHg 23%
    16:00 +37°C° 0 mm 1 mps 699 mmHg 21%
    17:00 +34°C° 0 mm 1 mps 699 mmHg 26%
    18:00 +29°C° 0 mm 0 mps 699 mmHg 31%
    19:00 +26°C° 0 mm 0 mps 698 mmHg 36%
    20:00 +25°C° 0 mm 0 mps 699 mmHg 38%
    21:00 +24°C° 0 mm 0 mps 699 mmHg 40%
    22:00 +24°C° 0 mm 0 mps 700 mmHg 42%
    23:00 +23°C° 0 mm 0 mps 700 mmHg 44%

    Tomorrow, 24 January, Thursday

    Time Temperature Precipitation Wind Pressure Humidity
    00:00 +24°C° 0 mm 1 mps 700 mmHg 46%
    01:00 +24°C° 0 mm 1 mps 700 mmHg 49%
    02:00 +23°C° 0 mm 1 mps 700 mmHg 54%
    03:00 +23°C° 0 mm 1 mps 699 mmHg 59%
    04:00 +22°C° 0 mm 1 mps 699 mmHg 64%
    05:00 +22°C° 0 mm 1 mps 700 mmHg 73%
    06:00 +20°C° 0 mm 0 mps 700 mmHg 81%
    07:00 +20°C° 0 mm 0 mps 700 mmHg 89%
    08:00 +25°C° 0 mm 1 mps 701 mmHg 77%
    09:00 +28°C° 0 mm 1 mps 701 mmHg 65%
    10:00 +31°C° 0 mm 1 mps 702 mmHg 53%
    11:00 +34°C° 0 mm 1 mps 701 mmHg 44%
    12:00 +37°C° 0 mm 1 mps 701 mmHg 34%
    13:00 +38°C° 0 mm 0 mps 701 mmHg 24%
    14:00 +37°C° 0 mm 0 mps 699 mmHg 26%
    15:00 +35°C° 0 mm 0 mps 698 mmHg 28%
    16:00 +35°C° 0 mm 1 mps 697 mmHg 30%
    17:00 +33°C° 0 mm 1 mps 697 mmHg 36%
    18:00 +31°C° 0 mm 1 mps 698 mmHg 42%
    19:00 +29°C° 0 mm 1 mps 698 mmHg 48%
    20:00 +28°C° 0 mm 1 mps 698 mmHg 52%
    21:00 +27°C° 0 mm 1 mps 699 mmHg 56%
    22:00 +26°C° 0 mm 1 mps 700 mmHg 61%
    23:00 +25°C° 0.3 mm 1 mps 700 mmHg 70%

    Day after tomorrow, 25 January, Friday

    Time Temperature Precipitation Wind Pressure Humidity
    00:00 +24°C° 0.3 mm 1 mps 699 mmHg 79%
    01:00 +22°C° 0.3 mm 1 mps 699 mmHg 89%
    02:00 +22°C° 0.7 mm 1 mps 699 mmHg 91%
    03:00 +22°C° 0.7 mm 1 mps 699 mmHg 94%
    04:00 +22°C° 0.7 mm 1 mps 699 mmHg 96%
    05:00 +22°C° 0 mm 1 mps 700 mmHg 96%
    06:00 +20°C° 0 mm 0 mps 700 mmHg 96%
    07:00 +20°C° 0 mm 0 mps 700 mmHg 96%
    08:00 +23°C° 0 mm 0 mps 701 mmHg 82%
    09:00 +28°C° 0 mm 1 mps 702 mmHg 68%
    10:00 +31°C° 0 mm 1 mps 702 mmHg 54%
    11:00 +34°C° 0 mm 1 mps 702 mmHg 43%
    12:00 +37°C° 0 mm 1 mps 701 mmHg 32%
    13:00 +38°C° 0 mm 0 mps 701 mmHg 22%
    14:00 +37°C° 0 mm 0 mps 700 mmHg 22%
    15:00 +36°C° 0 mm 0 mps 699 mmHg 22%
    16:00 +35°C° 0 mm 0 mps 698 mmHg 22%
    17:00 +33°C° 0 mm 0 mps 698 mmHg 27%
    18:00 +30°C° 0 mm 0 mps 698 mmHg 32%
    19:00 +29°C° 0 mm 1 mps 698 mmHg 37%
    20:00 +28°C° 0 mm 1 mps 698 mmHg 39%
    21:00 +27°C° 0 mm 1 mps 699 mmHg 42%
    22:00 +26°C° 0 mm 1 mps 699 mmHg 44%
    23:00 +26°C° 0 mm 1 mps 699 mmHg 47%

    26 January, Saturday

    Time Temperature Precipitation Wind Pressure Humidity
    00:00 +25°C° 0 mm 1 mps 699 mmHg 49%
    01:00 +24°C° 0 mm 1 mps 699 mmHg 51%
    02:00 +24°C° 0 mm 1 mps 699 mmHg 60%
    03:00 +23°C° 0 mm 1 mps 698 mmHg 70%
    04:00 +22°C° 0 mm 1 mps 698 mmHg 79%
    05:00 +22°C° 0 mm 1 mps 698 mmHg 84%
    06:00 +22°C° 0 mm 1 mps 699 mmHg 90%
    07:00 +22°C° 0 mm 1 mps 699 mmHg 95%
    08:00 +24°C° 0 mm 0 mps 700 mmHg 78%
    09:00 +28°C° 0 mm 0 mps 701 mmHg 62%
    10:00 +32°C° 0 mm 0 mps 702 mmHg 45%
    11:00 +34°C° 0 mm 0 mps 702 mmHg 37%
    12:00 +39°C° 0 mm 1 mps 701 mmHg 28%
    13:00 +40°C° 0 mm 1 mps 700 mmHg 20%
    14:00 +40°C° 0 mm 1 mps 699 mmHg 19%
    15:00 +40°C° 0 mm 1 mps 698 mmHg 18%
    16:00 +40°C° 0 mm 1 mps 697 mmHg 16%
    17:00 +36°C° 0 mm 1 mps 697 mmHg 21%
    18:00 +32°C° 0 mm 1 mps 697 mmHg 25%
    19:00 +27°C° 0 mm 0 mps 697 mmHg 29%
    20:00 +27°C° 0 mm 0 mps 698 mmHg 31%
    21:00 +28°C° 0 mm 1 mps 699 mmHg 33%
    22:00 +27°C° 0 mm 1 mps 700 mmHg 35%
    23:00 +26°C° 0 mm 1 mps 699 mmHg 43%

    27 January, Sunday

    Time Temperature Precipitation Wind Pressure Humidity
    00:00 +26°C° 0 mm 1 mps 699 mmHg 52%
    01:00 +25°C° 0 mm 1 mps 699 mmHg 60%
    02:00 +25°C° 0.1 mm 1 mps 699 mmHg 72%
    03:00 +24°C° 0.1 mm 1 mps 699 mmHg 83%
    04:00 +23°C° 0.1 mm 1 mps 699 mmHg 95%
    05:00 +23°C° 0 mm 1 mps 699 mmHg 96%
    06:00 +23°C° 0 mm 1 mps 700 mmHg 96%
    07:00 +23°C° 0 mm 1 mps 700 mmHg 96%
    08:00 +25°C° 0 mm 1 mps 701 mmHg 85%
    09:00 +28°C° 0 mm 1 mps 701 mmHg 73%
    10:00 +30°C° 0 mm 1 mps 702 mmHg 62%
    11:00 +33°C° 0 mm 1 mps 701 mmHg 49%
    12:00 +35°C° 0 mm 0 mps 701 mmHg 37%
    13:00 +39°C° 0 mm 0 mps 701 mmHg 25%
    14:00 +38°C° 0 mm 0 mps 700 mmHg 25%
    15:00 +36°C° 0 mm 0 mps 699 mmHg 24%
    16:00 +35°C° 0 mm 0 mps 698 mmHg 24%
    17:00 +33°C° 0 mm 0 mps 698 mmHg 30%
    18:00 +32°C° 0 mm 1 mps 698 mmHg 36%
    19:00 +30°C° 0 mm 1 mps 698 mmHg 42%
    20:00 +29°C° 0 mm 1 mps 699 mmHg 49%
    21:00 +28°C° 0 mm 1 mps 699 mmHg 56%
    22:00 +27°C° 0 mm 1 mps 700 mmHg 63%
    23:00 +26°C° 0.1 mm 1 mps 700 mmHg 69%

    28 January, Monday

    Time Temperature Precipitation Wind Pressure Humidity
    00:00 +25°C° 0.1 mm 1 mps 700 mmHg 76%
    01:00 +24°C° 0.1 mm 1 mps 699 mmHg 82%
    02:00 +24°C° 0 mm 1 mps 699 mmHg 86%
    03:00 +23°C° 0 mm 1 mps 699 mmHg 91%
    04:00 +23°C° 0 mm 1 mps 699 mmHg 95%
    05:00 +23°C° 0 mm 1 mps 699 mmHg 95%
    06:00 +23°C° 0 mm 1 mps 700 mmHg 95%
    07:00 +23°C° 0 mm 1 mps 700 mmHg 95%
    08:00 +25°C° 0 mm 1 mps 700 mmHg 87%
    09:00 +26°C° 0 mm 1 mps 701 mmHg 79%
    10:00 +27°C° 0 mm 1 mps 701 mmHg 71%
    11:00 +31°C° 0 mm 1 mps 701 mmHg 57%
    12:00 +34°C° 0 mm 1 mps 700 mmHg 43%
    13:00 +36°C° 0 mm 0 mps 700 mmHg 29%
    14:00 +35°C° 0 mm 0 mps 699 mmHg 28%
    15:00 +35°C° 0 mm 0 mps 699 mmHg 26%
    16:00 +35°C° 0 mm 0 mps 698 mmHg 24%
    17:00 +34°C° 0 mm 1 mps 698 mmHg 29%
    18:00 +31°C° 0 mm 1 mps 698 mmHg 34%
    19:00 +29°C° 0 mm 1 mps 698 mmHg 40%
    20:00 +28°C° 0 mm 1 mps 699 mmHg 44%
    21:00 +27°C° 0 mm 1 mps 699 mmHg 47%
    22:00 +26°C° 0 mm 1 mps 699 mmHg 51%
    23:00 +25°C° 0 mm 1 mps 699 mmHg 56%
    Show more